[[{"header":{"parameterUnit":"m.s-1","parameterCategory":1,"la1":30.2991,"la2":30.254,"lo1":-89.0895,"lo2":-89.0444,"dy":0.0017,"dx":0.0017,"nx":28,"ny":28,"refTime":"2025-01-12T09:00:00:Z","depth":0,"parameterNumber":2,"parameterNumberName":"U-component_of_WINDS"},"data":[0,0,0,0,0,0,0,0,0,0,0,0,0,0,0,0,0,0,0,0,0,0,0,0,0,0,0,0,0,0,0,0,0,0,0,0,0,0,0,0,0,0,0,0,0,0,0,0,0,0,0,0,0,0,0,0,0,0,-0.6731,-0.6731,0,-0.6787,-0.6787,-0.6788,-0.6771,-0.677,-0.6769,-0.6768,-0.6826,-0.6829,-0.6832,0,0,0,0,0,0,0,0,0,0,0,0,0,-0.661,-0.6612,-0.6731,-0.6731,-0.6732,-0.6787,-0.6787,-0.6788,-0.6772,-0.677,-0.6769,-0.6767,-0.6825,-0.6829,-0.6832,0,0,0,0,0,0,0,0,0,0,0,0,0,-0.6664,-0.6613,-0.6731,-0.673,-0.6731,-0.6786,-0.6787,-0.6788,-0.6772,-0.677,-0.6768,-0.6767,-0.6824,-0.6828,-0.6832,-0.6892,0,0,-0.6844,-0.6846,0,0,0,0,0,0,0,0,-0.6661,-0.6668,-0.673,-0.6731,-0.6731,-0.677,-0.6766,-0.6823,-0.6772,-0.6756,-0.6768,-0.6766,-0.6809,-0.6814,-0.6829,-0.6894,-0.6897,-0.6845,-0.6847,-0.6849,-0.685,0,0,0,0,0,0,0,-0.6657,-0.6666,-0.6753,-0.6731,-0.6732,-0.6728,-0.6733,-0.6777,-0.6792,-0.6758,-0.6757,-0.6763,-0.6809,-0.6825,-0.683,-0.6898,-0.6845,-0.6848,-0.685,-0.6852,-0.7014,-0.7016,0,0,0,0,0,0,-0.6653,-0.6663,-0.6751,-0.6755,-0.6691,-0.6731,-0.6738,-0.676,-0.6791,-0.6795,-0.6765,-0.6762,-0.6819,-0.6825,-0.6832,-0.6904,-0.6849,-0.6852,-0.6855,-0.7012,-0.7015,-0.7017,0,0,0,0,0,0,-0.665,-0.6661,-0.6749,-0.6708,-0.6719,-0.6735,-0.676,-0.6762,-0.6777,-0.6797,-0.6799,-0.6778,-0.6818,-0.6826,-0.6877,-0.6906,-0.6854,-0.6858,-0.701,-0.7013,-0.7016,-0.7048,0,0,0,0,0,0,-0.6647,-0.666,-0.6683,-0.6709,-0.6721,-0.6793,-0.6762,-0.6764,-0.6784,-0.6781,-0.681,-0.6813,-0.6817,-0.6871,-0.6881,-0.691,-0.6861,-0.7008,-0.7011,-0.7015,-0.7044,-0.7051,-0.7058,0,0,0,0,0,-0.6642,-0.669,-0.6684,-0.6695,-0.675,-0.6795,-0.6802,-0.6805,-0.6786,-0.6809,-0.6822,-0.6812,-0.69,-0.6876,-0.6887,-0.6918,-0.7006,-0.701,-0.7015,-0.7041,-0.705,-0.7057,0,0,0,0,0,0,-0.6667,-0.6693,-0.6687,-0.6744,-0.6767,-0.6792,-0.6821,-0.6814,-0.6844,-0.684,-0.6843,-0.685,-0.6902,-0.6914,-0.6887,-0.6977,-0.695,-0.6957,-0.6967,-0.6975,-0.6982,-0.6978,-0.6864,0,0,0,0,0,-0.6679,-0.6713,-0.6734,-0.6782,-0.6794,-0.6805,-0.6825,-0.6825,-0.6849,-0.6859,-0.6875,-0.6899,-0.6932,-0.6954,-0.6986,-0.7045,-0.7051,-0.7072,-0.7078,-0.7084,-0.709,-0.7123,-0.7132,-0.7031,-0.7031,-0.7031,0,0,-0.6705,-0.6723,-0.6744,-0.6787,-0.6805,-0.684,-0.6814,-0.6852,-0.6878,-0.6865,-0.6914,-0.6926,-0.6953,-0.7008,-0.7033,-0.7021,-0.7119,-0.7089,-0.7094,-0.7097,-0.7128,-0.7138,-0.7146,-0.7034,-0.7034,-0.7033,0,0,-0.6769,-0.6786,-0.6828,-0.6846,-0.6873,-0.6881,-0.6891,-0.6916,-0.6924,-0.6972,-0.6963,-0.6994,-0.7051,-0.707,-0.7088,-0.7158,-0.715,-0.7168,-0.7203,-0.7235,-0.7243,-0.725,-0.7276,-0.7285,-0.7174,-0.7174,-0.7174,0,-0.6797,-0.685,-0.6851,-0.689,-0.6909,-0.6898,-0.6941,-0.6959,-0.6995,-0.7009,-0.6993,-0.7064,-0.7081,-0.7141,-0.7158,-0.7172,-0.7184,-0.7166,-0.7242,-0.7249,-0.7255,-0.728,-0.729,-0.7176,-0.7176,-0.7175,-0.7175,0,-0.6884,-0.692,-0.6951,-0.6985,-0.7008,-0.7049,-0.7056,-0.7079,-0.7077,-0.7085,-0.7135,-0.7155,-0.719,-0.7204,-0.7203,-0.7263,-0.7255,-0.724,-0.7214,-0.7267,-0.729,-0.73,-0.7179,-0.7178,-0.7177,-0.7177,0,0,-0.6967,-0.7001,-0.7013,-0.7028,-0.7056,-0.7085,-0.7124,-0.7158,-0.7178,-0.7202,-0.7236,-0.7284,-0.7271,-0.729,-0.7291,-0.7318,-0.7373,-0.7301,-0.7301,-0.7315,-0.7442,-0.7454,-0.7464,-0.7367,-0.7369,-0.7371,-0.744,0,-0.7035,-0.7105,-0.7107,-0.7171,-0.7205,-0.7194,-0.7229,-0.725,-0.7258,-0.7288,-0.7297,-0.7331,-0.7311,-0.7323,-0.7349,-0.7361,-0.7399,-0.7356,-0.74,-0.7401,-0.7395,-0.7477,-0.7489,-0.7554,-0.7449,-0.7451,-0.7452,0,-0.7124,-0.7151,-0.7219,-0.7242,-0.7256,-0.7287,-0.7318,-0.7347,-0.737,-0.7374,-0.7395,-0.7391,-0.7432,-0.7403,-0.7459,-0.7429,-0.7447,-0.7455,-0.7458,-0.7463,-0.7431,-0.7486,-0.7575,-0.7585,-0.7466,-0.7465,-0.7464,0,-0.718,-0.7233,-0.728,-0.7294,-0.7322,-0.7344,-0.7356,-0.7378,-0.7398,-0.7425,-0.7438,-0.7469,-0.7487,-0.7511,-0.7515,-0.7493,-0.7571,-0.7543,-0.7577,-0.7577,-0.7595,-0.7595,-0.769,-0.7604,-0.7604,-0.7604,-0.7604,0,-0.7256,-0.7298,-0.7306,-0.7335,-0.7382,-0.7383,-0.7429,-0.744,-0.7459,-0.749,-0.7481,-0.7511,-0.7514,-0.7545,-0.7548,-0.7594,-0.7602,-0.7607,-0.7608,-0.7609,-0.7608,-0.7621,-0.7618,-0.7606,-0.7606,-0.7605,-0.7605,0,-0.7327,-0.7334,-0.7385,-0.7406,-0.7413,-0.7446,-0.7465,-0.7493,-0.7499,-0.7539,-0.7548,-0.756,-0.7595,-0.7601,-0.7642,-0.7645,-0.77,-0.7695,-0.7692,-0.7692,-0.7727,-0.7724,-0.7835,-0.785,-0.7753,-0.7754,-0.7755,0,-0.7377,-0.7409,-0.7433,-0.7453,-0.7467,-0.75,-0.752,-0.7521,-0.7543,-0.7571,-0.7596,-0.763,-0.7657,-0.7714,-0.7726,-0.7757,-0.7754,-0.7791,-0.7759,-0.7759,-0.7756,-0.7755,-0.7758,-0.7798,-0.7799,-0.78,-0.78,0,-0.7464,-0.7465,-0.7494,-0.7525,-0.7549,-0.7573,-0.7596,-0.7613,-0.7617,-0.7642,-0.7677,-0.7699,-0.774,-0.7775,-0.7806,-0.7818,-0.7811,-0.781,-0.782,-0.7822,-0.7819,-0.7822,-0.7711,-0.7808,-0.7807,-0.7807,-0.7806,-0.7806,-0.7526,-0.7554,-0.7576,-0.7609,-0.7626,-0.7647,-0.7674,-0.7684,-0.7714,-0.7748,-0.7747,-0.7786,-0.7807,-0.7848,-0.7863,-0.7893,-0.7882,-0.7896,-0.7899,-0.7903,-0.7907,-0.7813,-0.7899,-0.7899,-0.7898,-0.7898,-0.7898,0,-0.7614,-0.7627,-0.7657,-0.7689,-0.7715,-0.7704,-0.7728,-0.775,-0.7785,-0.7805,-0.7832,-0.7873,-0.7906,-0.7919,-0.7951,-0.7973,-0.797,-0.7982,-0.7981,-0.7984,-0.7915,-0.7904,-0.7983,-0.7983,-0.7983,-0.7983,-0.7983,-0.7983,-0.7663,-0.771,-0.7713,-0.7768,-0.7781,-0.7819,-0.7834,-0.7853,-0.787,-0.7915,-0.7942,-0.7951,-0.7968,-0.8001,-0.8031,-0.8034,-0.8047,-0.806,-0.8062,-0.7997,-0.7989,-0.7981,-0.797,-0.8062,-0.8062,-0.8128,-0.8128,-0.8129]},{"header":{"parameterUnit":"m.s-1","parameterCategory":1,"la1":30.2991,"la2":30.254,"lo1":-89.0895,"lo2":-89.0444,"dy":0.0017,"dx":0.0017,"nx":28,"ny":28,"refTime":"2025-01-12T09:00:00:Z","depth":0,"parameterNumber":3,"parameterNumberName":"V-component_of_WINDS"},"data":[0,0,0,0,0,0,0,0,0,0,0,0,0,0,0,0,0,0,0,0,0,0,0,0,0,0,0,0,0,0,0,0,0,0,0,0,0,0,0,0,0,0,0,0,0,0,0,0,0,0,0,0,0,0,0,0,0,0,-7.5432,-7.5434,0,-7.5562,-7.5563,-7.5565,-7.5474,-7.547,-7.5465,-7.5462,-7.5588,-7.5595,-7.5602,0,0,0,0,0,0,0,0,0,0,0,0,0,-7.51,-7.5107,-7.5432,-7.5434,-7.5435,-7.5562,-7.5563,-7.5565,-7.5474,-7.5469,-7.5464,-7.546,-7.5586,-7.5594,-7.5603,0,0,0,0,0,0,0,0,0,0,0,0,0,-7.5238,-7.5109,-7.5432,-7.5405,-7.5404,-7.5561,-7.5563,-7.5566,-7.5475,-7.5469,-7.5463,-7.5457,-7.5583,-7.5593,-7.5604,-7.5792,0,0,-7.5637,-7.5641,0,0,0,0,0,0,0,0,-7.5231,-7.5251,-7.5408,-7.5408,-7.5407,-7.5495,-7.5492,-7.5641,-7.5477,-7.5448,-7.5462,-7.5454,-7.5562,-7.5574,-7.5611,-7.5798,-7.5803,-7.5638,-7.5644,-7.5649,-7.5652,0,0,0,0,0,0,0,-7.5221,-7.5244,-7.5483,-7.541,-7.5409,-7.5385,-7.5398,-7.552,-7.5537,-7.545,-7.5444,-7.5461,-7.556,-7.5601,-7.5614,-7.5805,-7.5637,-7.5647,-7.5653,-7.5658,-7.6152,-7.6159,0,0,0,0,0,0,-7.5215,-7.5237,-7.5479,-7.5487,-7.5302,-7.5396,-7.5411,-7.5473,-7.5536,-7.554,-7.5466,-7.5456,-7.5586,-7.5601,-7.5618,-7.5843,-7.5649,-7.5659,-7.5665,-7.6146,-7.6154,-7.6161,0,0,0,0,0,0,-7.5208,-7.5237,-7.5474,-7.5361,-7.5389,-7.5408,-7.5479,-7.5479,-7.552,-7.5548,-7.555,-7.5505,-7.5582,-7.5603,-7.575,-7.5846,-7.5664,-7.5673,-7.6138,-7.6148,-7.6158,-7.6294,0,0,0,0,0,0,-7.5199,-7.5235,-7.5309,-7.5363,-7.5395,-7.5606,-7.5485,-7.5486,-7.5539,-7.5528,-7.5585,-7.5589,-7.5579,-7.5734,-7.5761,-7.5857,-7.5682,-7.6129,-7.6142,-7.6154,-7.6281,-7.6307,-7.633,0,0,0,0,0,-7.5187,-7.534,-7.5313,-7.5342,-7.5487,-7.5612,-7.563,-7.5617,-7.5547,-7.562,-7.5638,-7.5587,-7.5831,-7.575,-7.5779,-7.588,-7.6123,-7.6139,-7.6153,-7.627,-7.6302,-7.6329,0,0,0,0,0,0,-7.5294,-7.5347,-7.5317,-7.5492,-7.5549,-7.5596,-7.5688,-7.5652,-7.5727,-7.5713,-7.5692,-7.5705,-7.586,-7.5884,-7.5794,-7.6065,-7.5966,-7.5987,-7.6044,-7.6075,-7.6099,-7.609,-7.5691,0,0,0,0,0,-7.5339,-7.5437,-7.5477,-7.5628,-7.5658,-7.5669,-7.5722,-7.5707,-7.5764,-7.5787,-7.5815,-7.587,-7.5959,-7.6018,-7.6101,-7.6283,-7.6294,-7.6367,-7.6392,-7.6412,-7.6431,-7.6529,-7.6562,-7.6211,-7.6211,-7.621,0,0,-7.543,-7.5471,-7.5534,-7.565,-7.5692,-7.5793,-7.5689,-7.58,-7.5874,-7.5802,-7.5944,-7.5967,-7.6027,-7.6193,-7.6267,-7.6218,-7.653,-7.6431,-7.6447,-7.6455,-7.6548,-7.6581,-7.6611,-7.6221,-7.6219,-7.6217,0,0,-7.565,-7.5691,-7.5822,-7.5866,-7.5932,-7.5938,-7.597,-7.6023,-7.6037,-7.6179,-7.6127,-7.6214,-7.6368,-7.6413,-7.6456,-7.6693,-7.6649,-7.6721,-7.6849,-7.6945,-7.6973,-7.6997,-7.7082,-7.7113,-7.6739,-7.674,-7.674,0,-7.5755,-7.5908,-7.5893,-7.6009,-7.6061,-7.6003,-7.6134,-7.6177,-7.6266,-7.6303,-7.6247,-7.6439,-7.6475,-7.6651,-7.6709,-7.6746,-7.678,-7.6715,-7.697,-7.6995,-7.7017,-7.7098,-7.713,-7.6748,-7.6747,-7.6746,-7.6746,0,-7.6035,-7.6141,-7.6238,-7.6329,-7.6391,-7.6514,-7.6516,-7.6581,-7.6561,-7.6573,-7.6718,-7.6759,-7.685,-7.689,-7.6871,-7.7064,-7.7031,-7.6974,-7.6873,-7.706,-7.7135,-7.7166,-7.676,-7.6757,-7.6755,-7.6753,0,0,-7.6325,-7.6406,-7.6443,-7.6483,-7.6551,-7.6632,-7.6752,-7.6843,-7.69,-7.6962,-7.7062,-7.7194,-7.7141,-7.719,-7.7174,-7.7259,-7.7445,-7.719,-7.7191,-7.7237,-7.766,-7.7704,-7.774,-7.7415,-7.7421,-7.7426,-7.7655,0,-7.6549,-7.6761,-7.6751,-7.6949,-7.7047,-7.6993,-7.7097,-7.7149,-7.7163,-7.7246,-7.726,-7.7354,-7.7277,-7.7307,-7.7387,-7.7405,-7.7529,-7.7388,-7.7507,-7.7511,-7.7495,-7.778,-7.7827,-7.8041,-7.7685,-7.769,-7.7693,0,-7.6839,-7.6915,-7.7123,-7.7178,-7.7218,-7.7313,-7.7396,-7.7477,-7.7534,-7.7538,-7.7594,-7.7564,-7.7684,-7.758,-7.7743,-7.7648,-7.7695,-7.7711,-7.7719,-7.773,-7.7614,-7.7799,-7.8109,-7.8142,-7.774,-7.7736,-7.7733,0,-7.7032,-7.7185,-7.733,-7.7366,-7.7433,-7.75,-7.7531,-7.7582,-7.7638,-7.771,-7.7746,-7.783,-7.7876,-7.794,-7.7934,-7.7859,-7.8101,-7.7996,-7.8106,-7.8107,-7.816,-7.8157,-7.8484,-7.819,-7.8189,-7.8189,-7.8188,0,-7.7283,-7.7413,-7.7417,-7.7507,-7.765,-7.7636,-7.7777,-7.78,-7.7847,-7.7938,-7.7895,-7.7981,-7.7967,-7.8053,-7.8048,-7.8185,-7.8205,-7.8211,-7.8208,-7.8216,-7.8215,-7.8247,-7.8232,-7.8197,-7.8195,-7.8194,-7.8192,0,-7.7523,-7.7531,-7.7686,-7.7737,-7.7753,-7.7856,-7.7899,-7.7983,-7.7993,-7.8109,-7.8135,-7.815,-7.8249,-7.8249,-7.8361,-7.8358,-7.8525,-7.8505,-7.8507,-7.8503,-7.8614,-7.8604,-7.8973,-7.9021,-7.8696,-7.8699,-7.8701,0,-7.7684,-7.7783,-7.7846,-7.7905,-7.7941,-7.8036,-7.8094,-7.8083,-7.8144,-7.8218,-7.8292,-7.8387,-7.8463,-7.8623,-7.8643,-7.8728,-7.871,-7.8833,-7.8722,-7.8727,-7.8713,-7.8708,-7.8717,-7.8855,-7.8859,-7.8862,-7.8864,0,-7.7969,-7.7968,-7.8054,-7.8142,-7.8212,-7.828,-7.8342,-7.8393,-7.8389,-7.846,-7.8562,-7.8621,-7.8736,-7.8831,-7.8913,-7.8942,-7.8903,-7.8899,-7.8929,-7.8938,-7.8936,-7.8939,-7.8567,-7.8891,-7.8888,-7.8886,-7.8885,-7.8884,-7.8174,-7.826,-7.8318,-7.8415,-7.8462,-7.8521,-7.8603,-7.8624,-7.871,-7.8805,-7.8792,-7.8906,-7.896,-7.9067,-7.9103,-7.9191,-7.9147,-7.9191,-7.9202,-7.9213,-7.9226,-7.8921,-7.9205,-7.9204,-7.9204,-7.9203,-7.9203,0,-7.8457,-7.8493,-7.8582,-7.8673,-7.8749,-7.8707,-7.8774,-7.884,-7.8941,-7.8996,-7.9072,-7.9189,-7.9281,-7.9309,-7.9397,-7.9461,-7.9446,-7.9485,-7.948,-7.9488,-7.9259,-7.9225,-7.9496,-7.9496,-7.9496,-7.9496,-7.9496,-7.9496,-7.8614,-7.8758,-7.8764,-7.8929,-7.8962,-7.9076,-7.9118,-7.9172,-7.9216,-7.935,-7.9427,-7.9445,-7.9488,-7.958,-7.9661,-7.9667,-7.9702,-7.9749,-7.9747,-7.9533,-7.9504,-7.9476,-7.9443,-7.9756,-7.9757,-7.9968,-7.997,-7.9972]}]]